DW2485 Weather Reports


time (UTC)temp
F
wind
direction
speed
knots
gust
knots
rain 1hr
in
rain 24hr
in
rain mn
in
humidity
%
barometer
mb
20260504203504 81 266 14.8 21.7 0.00 0.00 0.00 100 1000.0
20260504203005 81 263 13.9 22.6 0.00 0.00 0.00 100 1000.1
20260504202505 82 258 10.4 24.3 0.00 0.00 0.00 100 1000.1
20260504201504 80 253 11.3 19.1 0.00 0.00 0.00 100 1000.3
20260504201005 80 251 11.3 15.6 0.00 0.00 0.00 100 1000.4
20260504200505 81 257 13.0 19.1 0.00 0.00 0.00 100 1000.3
20260504195004 81 258 14.8 20.9 0.00 0.00 0.00 100 1000.5
20260504194505 81 258 12.2 17.4 0.00 0.00 0.00 100 1000.6
20260504194005 82 257 15.6 20.9 0.00 0.00 0.00 100 1000.6
20260504193504 82 264 14.8 22.6 0.00 0.00 0.00 100 1000.6
20260504193005 81 247 12.2 22.6 0.00 0.00 0.00 100 1000.6
20260504192505 81 248 13.0 20.0 0.00 0.00 0.00 100 1000.8
20260504192004 81 265 8.7 20.0 0.00 0.00 0.00 100 1000.8
20260504190505 83 271 14.8 22.6 0.00 0.00 0.00 100 1000.8
20260504190005 83 272 15.6 24.3 0.00 0.00 0.00 100 1000.8
20260504185505 82 253 10.4 17.4 0.00 0.00 0.00 100 1001.0
20260504184005 83 256 11.3 17.4 0.00 0.00 0.00 100 1001.1
20260504183505 83 225 12.2 20.9 0.00 0.00 0.00 100 1001.0
20260504183004 83 248 11.3 20.0 0.00 0.00 0.00 100 1001.0
20260504182005 82 269 11.3 19.1 0.00 0.00 0.00 100 1001.1
20260504175505 81 264 8.7 17.4 0.00 0.00 0.00 100 1001.0
20260504174005 80 241 11.3 15.6 0.00 0.00 0.00 100 1001.1
20260504173004 81 250 8.7 13.9 0.00 0.00 0.00 100 1001.5
20260504172505 80 218 7.0 13.9 0.00 0.00 0.00 100 1001.4
20260504170504 80 243 10.4 13.9 0.00 0.00 0.00 100 1001.8
20260504140505 64 206 4.3 7.0 0.00 0.00 0.00 100 1004.2
20260504081504 45 177 0.0 1.7 0.00 0.01 0.00 100 1006.8
20260504081004 45 177 0.9 0.9 0.00 0.01 0.00 100 1006.8
20260504050504 53 186 0.0 0.9 0.00 0.01 0.00 100 1008.6
20260504045504 53 186 1.7 2.6 0.00 0.01 0.01 100 1008.7
20260504042503 55 217 1.7 1.7 0.00 0.01 0.01 100 1008.8
20260504042004 55 217 0.9 1.7 0.00 0.01 0.01 100 1008.7
20260504040506 56 251 0.9 0.9 0.00 0.01 0.01 100 1008.8
20260504040006 56 251 1.7 2.6 0.00 0.01 0.01 100 1008.9
20260504035506 57 223 1.7 1.7 0.00 0.01 0.01 100 1009.0
20260504035006 57 284 0.9 1.7 0.00 0.01 0.01 100 1009.1
20260504034006 57 277 0.9 1.7 0.00 0.01 0.01 100 1009.1
20260504032005 60 220 2.6 5.2 0.00 0.01 0.01 100 1009.2
20260504031006 61 282 1.7 2.6 0.00 0.01 0.01 100 1009.0
20260504030506 62 280 1.7 1.7 0.00 0.01 0.01 100 1009.0
20260504030005 62 288 0.9 1.7 0.00 0.01 0.01 100 1008.9
20260504024505 63 291 1.7 2.6 0.00 0.01 0.01 100 1008.7
20260504024005 63 285 1.7 1.7 0.00 0.01 0.01 100 1008.7
20260504023505 63 269 2.6 2.6 0.00 0.01 0.01 100 1008.8
20260504022505 64 301 2.6 4.3 0.00 0.01 0.01 100 1008.6
20260504021505 64 306 3.5 6.1 0.00 0.01 0.01 100 1008.5
20260504015505 66 274 4.3 6.1 0.00 0.01 0.01 100 1008.4
20260504015005 66 277 5.2 6.1 0.00 0.01 0.01 100 1008.3
20260504014505 66 272 4.3 6.1 0.00 0.01 0.01 100 1008.4
20260504014005 67 267 4.3 6.1 0.00 0.01 0.01 100 1008.3
20260504012505 68 265 4.3 6.1 0.00 0.01 0.01 100 1008.1
20260504011506 69 262 5.2 7.0 0.00 0.01 0.01 100 1008.0
20260504011005 69 266 6.1 7.8 0.00 0.01 0.01 100 1007.9
20260504010505 70 271 6.1 7.8 0.00 0.01 0.01 100 1007.8
20260504010005 70 262 6.1 7.8 0.00 0.01 0.01 100 1007.8
20260504005505 71 273 7.0 8.7 0.00 0.01 0.01 100 1007.8
20260504004505 71 266 6.1 8.7 0.00 0.01 0.01 100 1007.8
20260504004005 72 258 5.2 7.8 0.00 0.01 0.01 100 1007.6
20260504001505 73 277 6.1 10.4 0.00 0.01 0.01 100 1007.5
20260504001005 73 284 7.8 11.3 0.00 0.01 0.01 100 1007.7
20260504000506 74 293 8.7 13.9 0.00 0.01 0.01 100 1007.6
20260504000006 74 280 9.6 13.9 0.00 0.01 0.01 100 1007.6
20260503235505 74 293 11.3 14.8 0.00 0.01 0.01 100 1007.4
20260503233505 75 292 12.2 17.4 0.00 0.01 0.01 100 1007.6
20260503232505 75 267 12.2 15.6 0.00 0.01 0.01 100 1007.5
20260503232005 75 291 10.4 17.4 0.00 0.01 0.01 100 1007.5
20260503231505 75 292 13.9 19.1 0.00 0.01 0.01 100 1007.5
20260503231005 76 275 8.7 13.9 0.00 0.01 0.01 100 1007.4
20260503223006 76 261 9.6 14.8 0.00 0.01 0.01 100 1007.3
20260503222505 76 253 11.3 17.4 0.00 0.01 0.01 100 1007.2
20260503221505 77 294 13.9 18.2 0.00 0.01 0.01 100 1007.2
20260503221005 77 253 9.6 15.6 0.00 0.01 0.01 100 1007.3
20260503220005 76 283 7.8 12.2 0.00 0.01 0.01 100 1007.2
20260503215505 76 251 10.4 17.4 0.00 0.01 0.01 100 1007.1
20260503215005 77 249 10.4 17.4 0.00 0.01 0.01 100 1007.1
20260503213506 78 261 8.7 14.8 0.00 0.01 0.01 100 1007.2
20260503211505 77 261 12.2 20.0 0.00 0.01 0.01 100 1007.3
20260503204505 77 294 11.3 22.6 0.00 0.01 0.01 100 1007.6